Weather History for Greenville Downtown, SC

Change the Weather History Date:

Thursday, March 29, 2012

  Actual Average Record
Temperature  
Mean Temperature 72 °F -  
Max Temperature 84 °F 65 °F 84 °F (2012)
Min Temperature 60 °F 46 °F 34 °F (2013)
Cooling Degree Days 7    
Growing Degree Days 22 (Base 50)    
Moisture  
Dew Point 52 °F    
Average Humidity 53    
Maximum Humidity 69    
Minimum Humidity 31    
Precipitation  
Precipitation 0.02 in - - ()
Sea Level Pressure  
Sea Level Pressure 29.93 in    
Wind  
Wind Speed 6 mph (SW)    
Max Wind Speed 12 mph    
Max Gust Speed 18 mph    
Visibility 10 miles    
Events      
Averages and records for this station are not official NWS values.
T = Trace of Precipitation, MM = Missing Value Source: NWS Daily Summary

Daily Weather History Graph

Daily Weather History Graph

Search for Another Location

Airport:

Trip Planner

Search our weather history database for the weather conditions in past years. The results will help you decide how hot, cold, wet, or windy it might be!

Date:

Astronomy

Mar. 29, 2012 Rise Set
Actual Time 7:19 AM EDT 7:48 PM EDT
Civil Twilight 6:54 AM EDT 8:14 PM EDT
Nautical Twilight 6:24 AM EDT 8:43 PM EDT
Astronomical Twilight 5:54 AM EDT 9:14 PM EDT
Moon 11:39 AM EDT (3/29) 1:27 AM EDT (3/29)
Length of Visible Light 13h 19m
Length of Day
12h 28m
Waxing Crescent, 39% of the Moon is Illuminated
Mar 29
Waxing Crescent
Mar 30
First Quarter
Apr 6
Full
Apr 13
Last Quarter
Apr 21
New

Hourly Weather History & Observations

Time (EDT) Temp. Dew Point Humidity Pressure Visibility Wind Dir Wind Speed Gust Speed Precip Events Conditions
12:53 AM 68.0 °F 50.0 °F 52% 29.97 in 10.0 mi WSW 8.1 mph - N/A   Clear
1:53 AM 66.9 °F 50.0 °F 54% 29.95 in 10.0 mi WSW 11.5 mph - N/A   Clear
2:53 AM 64.9 °F 50.0 °F 58% 29.94 in 10.0 mi WSW 8.1 mph - N/A   Clear
3:53 AM 63.0 °F 50.0 °F 63% 29.93 in 10.0 mi WSW 10.4 mph - N/A   Clear
4:53 AM 63.0 °F 50.0 °F 63% 29.92 in 10.0 mi West 5.8 mph - N/A   Clear
5:53 AM 63.0 °F 50.0 °F 63% 29.93 in 10.0 mi Calm Calm - N/A   Clear
6:53 AM 62.1 °F 50.0 °F 65% 29.94 in 10.0 mi WSW 4.6 mph - N/A   Clear
7:53 AM 60.1 °F 50.0 °F 69% 29.95 in 10.0 mi West 4.6 mph - N/A   Clear
8:53 AM 64.9 °F 51.1 °F 61% 29.96 in 10.0 mi West 5.8 mph - N/A   Clear
9:53 AM 69.1 °F 52.0 °F 54% 29.97 in 10.0 mi WSW 5.8 mph - N/A   Clear
10:53 AM 75.0 °F 53.1 °F 46% 29.96 in 10.0 mi West 8.1 mph - N/A   Clear
11:53 AM 80.1 °F 50.0 °F 35% 29.96 in 10.0 mi Variable 4.6 mph - N/A   Clear
12:53 PM 81.0 °F 51.1 °F 35% 29.94 in 10.0 mi Calm Calm - N/A   Clear
1:53 PM 82.0 °F 50.0 °F 33% 29.92 in 9.0 mi Calm Calm - N/A   Mostly Cloudy
2:53 PM 84.0 °F 50.0 °F 31% 29.90 in 10.0 mi SSW 9.2 mph - N/A   Partly Cloudy
3:53 PM 84.0 °F 51.1 °F 32% 29.88 in 10.0 mi SSW 5.8 mph - N/A   Mostly Cloudy
4:24 PM 77.0 °F 53.6 °F 44% 29.91 in 10.0 mi NE 8.1 mph 18.4 mph N/A   Overcast
4:53 PM 77.0 °F 51.1 °F 40% 29.88 in 10.0 mi East 6.9 mph - N/A   Mostly Cloudy
5:53 PM 75.9 °F 55.9 °F 50% 29.88 in 10.0 mi East 4.6 mph - 0.01 in   Mostly Cloudy
6:53 PM 73.0 °F 55.9 °F 55% 29.90 in 10.0 mi Calm Calm - N/A   Scattered Clouds
7:53 PM 71.1 °F 60.1 °F 68% 29.91 in 10.0 mi Calm Calm - 0.01 in   Mostly Cloudy
8:53 PM 70.0 °F 57.9 °F 65% 29.92 in 10.0 mi ESE 3.5 mph - N/A   Mostly Cloudy
9:53 PM 69.1 °F 57.9 °F 68% 29.94 in 10.0 mi SSE 4.6 mph - N/A   Scattered Clouds
10:53 PM 70.0 °F 55.0 °F 59% 29.94 in 10.0 mi Calm Calm - N/A   Scattered Clouds
11:53 PM 68.0 °F 54.0 °F 61% 29.94 in 10.0 mi Calm Calm - N/A   Mostly Cloudy